Regional Weather Roundup
Issued by NWS Sioux Falls, SD

Home | Current Version | Previous Version | Graphics & Text | Print | Product List | Glossary Off
Versions: 1 2 3 4 5 6 7 8 9 10 11 12 13 14 15 16 17 18 19 20 21 22 23 24 25 26 27 28 29 30 31 32 33 34 35 36 37 38 39 40 41 42 43 44 45 46 47 48 49 50

000
ASUS43 KFSD 300202
RWRFSD

WEATHER ROUNDUP FOR SE SOUTH DAKOTA/SW MINNESOTA/NW IOWA
NATIONAL WEATHER SERVICE SIOUX FALLS SD
900 PM CDT MON MAY 29 2017

NOTE: "FAIR" INDICATES FEW OR NO CLOUDS BELOW 12,000 FEET WITH NO
SIGNIFICANT WEATHER AND OR OBSTRUCTIONS TO VISIBILITY.


SDZ038>040-050-052>070-300300-
SOUTHEAST SOUTH DAKOTA

CITY           SKY/WX    TMP DP  RH WIND       PRES   REMARKS
BROOKINGS      CLEAR     55  43  63 NW8       29.97S
CHAMBERLAIN    MOCLDY    64  39  39 NW6       30.02R
HURON          CLEAR     59  39  47 N9        29.98R
MADISON        FAIR      55  46  71 NW6       29.99R
MITCHELL       PTCLDY    60  47  61 CALM      29.99S
SIOUX FALLS    PTCLDY    57  45  64 NW7       29.98S
WINNER         FAIR      62  41  46 NW3       30.03S
YANKTON        PTCLDY    59  45  59 NW5       30.00F
$$

MNZ071-072-080-081-089-090-097-098-300300-
SOUTHWEST MINNESOTA

CITY           SKY/WX    TMP DP  RH WIND       PRES   REMARKS
FAIRMONT       LGT RAIN  55  49  80 W14       29.96R
JACKSON        PTCLDY    52  46  82 CALM      29.97S
LUVERNE        CLEAR     57  41  54 NW6       29.98S
MARSHALL       PTCLDY    56  47  71 NW8       29.94S
MONTEVIDEO     CLOUDY    57  52  82 N5        29.92F
PIPESTONE      CLEAR     57  45  62 NW6       29.97S
REDWOOD FALLS  PTCLDY    57  43  59 NW9       29.92S
TRACY          CLEAR     56  50  80 W6        29.95S
WINDOM         PTCLDY    54  48  82 W8        29.95S
WORTHINGTON    CLEAR     53  47  79 W8        29.97S
$$

IAZ001>003-012>014-020>022-031-032-NEZ013-014-SDZ071-300300-
NORTHWEST IOWA

CITY           SKY/WX    TMP DP  RH WIND       PRES   REMARKS
CHEROKEE       MOCLDY    60  43  52 N8        29.99R
DENISON        CLEAR     63  43  48 NW8G15    30.01S
ESTHERVILLE    LGT RAIN  53  49  86 NW21G36   29.97R
LE MARS        CLEAR     63  41  45 NW9       30.00R
ORANGE CITY    CLEAR     59  45  58 NW6       29.99R
SHELDON        CLEAR     59  41  51 N7        29.97R
SIOUX CITY     CLEAR     61  43  51 NW9       30.00R
SPENCER        MOCLDY    57  46  66 NW8       29.97R
STORM LAKE     PTCLDY    61  41  48 NW10      29.99S
$$

ABBREVIATIONS USED IN REMARKS
   TC - TEMPERATURE IN CELSIUS
  WCI - WIND CHILL INDEX
   HX - HEAT INDEX
  VSB - VISIBILITY




USA.gov is the U.S. government's official web portal to all federal, state and local government web resources and services.